[[{"header":{"parameterUnit":"m.s-1","parameterCategory":1,"la1":30.2991,"la2":30.254,"lo1":-89.0895,"lo2":-89.0444,"dy":0.0017,"dx":0.0017,"nx":28,"ny":28,"refTime":"2024-07-04T21:00:00:Z","depth":0,"parameterNumber":2,"parameterNumberName":"U-component_of_WINDS"},"data":[0,0,0,0,0,0,0,0,0,0,0,0,0,0,0,0,0,0,0,0,0,0,0,0,0,0,0,0,0,0,0,0,0,0,0,0,0,0,0,0,0,0,0,0,0,0,0,0,0,0,0,0,0,0,0,0,0,0,3.5754,3.5754,0,3.5776,3.5777,3.5777,3.5711,3.5709,3.5707,3.5705,3.5732,3.5735,3.5738,0,0,0,0,0,0,0,0,0,0,0,0,0,3.5659,3.5661,3.5754,3.5754,3.5754,3.5776,3.5777,3.5777,3.5711,3.5709,3.5706,3.5704,3.5732,3.5735,3.5738,0,0,0,0,0,0,0,0,0,0,0,0,0,3.5693,3.5661,3.5754,3.5724,3.5722,3.5776,3.5777,3.5777,3.5712,3.5709,3.5706,3.5703,3.5731,3.5734,3.5738,3.5824,0,0,3.575,3.5752,0,0,0,0,0,0,0,0,3.5691,3.5696,3.5728,3.5726,3.5724,3.5738,3.5753,3.5793,3.5713,3.5716,3.5705,3.5701,3.5737,3.574,3.5751,3.5825,3.5826,3.5751,3.5753,3.5755,3.5756,0,0,0,0,0,0,0,3.5689,3.5695,3.5763,3.5729,3.5726,3.5711,3.5713,3.576,3.5743,3.5715,3.571,3.5714,3.5735,3.5748,3.5751,3.5826,3.5751,3.5754,3.5756,3.5758,3.5974,3.5977,0,0,0,0,0,0,3.5689,3.5693,3.5762,3.5763,3.5699,3.5716,3.5717,3.5736,3.5743,3.5741,3.5716,3.5711,3.5742,3.5747,3.5752,3.5854,3.5755,3.5758,3.5761,3.5971,3.5975,3.5979,0,0,0,0,0,0,3.5688,3.5696,3.5761,3.5727,3.5734,3.572,3.5742,3.5738,3.5751,3.5743,3.5741,3.5732,3.574,3.5747,3.5807,3.5854,3.576,3.5764,3.5967,3.5972,3.5977,3.6058,0,0,0,0,0,0,3.5685,3.5696,3.5727,3.5728,3.5736,3.5814,3.5745,3.5741,3.5757,3.575,3.5757,3.5756,3.5738,3.5801,3.5811,3.5858,3.5767,3.5963,3.5969,3.5975,3.6051,3.6065,3.6077,0,0,0,0,0,3.5682,3.5749,3.5729,3.5737,3.5774,3.5816,3.5821,3.5799,3.5761,3.5793,3.5789,3.5755,3.5847,3.5808,3.5818,3.5867,3.596,3.5967,3.5975,3.6045,3.6062,3.6077,0,0,0,0,0,0,3.5754,3.5748,3.5726,3.5795,3.5807,3.5805,3.5845,3.5817,3.5841,3.5833,3.5806,3.5808,3.5874,3.5876,3.5832,3.5951,3.5897,3.5907,3.5947,3.5963,3.5976,3.5974,3.577,0,0,0,0,0,3.5778,3.5811,3.5805,3.5867,3.5874,3.5859,3.5876,3.5858,3.5869,3.5874,3.5874,3.5888,3.592,3.5942,3.5971,3.6051,3.6053,3.609,3.6103,3.6114,3.6123,3.6168,3.6184,3.6004,3.6004,3.6003,0,0,3.5827,3.5829,3.5851,3.5881,3.5888,3.5925,3.5863,3.5904,3.5932,3.5881,3.5937,3.5938,3.5952,3.6023,3.6054,3.6027,3.6173,3.6123,3.6132,3.6135,3.6177,3.6194,3.621,3.6009,3.6008,3.6007,0,0,3.5937,3.594,3.5993,3.6001,3.6012,3.6002,3.6015,3.6019,3.6017,3.6073,3.6036,3.607,3.6125,3.6137,3.615,3.6267,3.6238,3.6278,3.6346,3.639,3.6405,3.6417,3.646,3.6476,3.6287,3.6287,3.6287,0,3.5997,3.605,3.6024,3.6068,3.6083,3.6038,3.6092,3.6102,3.6123,3.6136,3.6105,3.6175,3.6181,3.6255,3.6283,3.6295,3.6311,3.6277,3.6404,3.6417,3.6428,3.6469,3.6485,3.6292,3.6291,3.6291,3.629,0,3.6125,3.6162,3.6204,3.6224,3.6244,3.6293,3.6276,3.63,3.6281,3.6275,3.6335,3.634,3.6371,3.6387,3.6369,3.646,3.6442,3.6409,3.6354,3.6451,3.6489,3.6504,3.6299,3.6297,3.6296,3.6294,0,0,3.6279,3.6285,3.6301,3.6311,3.6321,3.635,3.6399,3.6427,3.6449,3.6466,3.6507,3.6556,3.6525,3.6541,3.6524,3.6562,3.6657,3.6524,3.6524,3.6549,3.6759,3.6785,3.6803,3.6637,3.664,3.6642,3.6758,0,3.6387,3.6468,3.6448,3.6529,3.6565,3.6524,3.6566,3.6579,3.6575,3.6606,3.6602,3.6638,3.6594,3.6603,3.6639,3.6637,3.6699,3.6629,3.6677,3.6679,3.6675,3.6823,3.685,3.6959,3.6773,3.6775,3.6777,0,3.6524,3.6546,3.6631,3.6637,3.6652,3.669,3.6716,3.6745,3.6759,3.6754,3.6772,3.6749,3.6799,3.6744,3.6814,3.6767,3.6786,3.6788,3.6792,3.6796,3.6734,3.6832,3.6993,3.701,3.68,3.6798,3.6797,0,3.663,3.668,3.6738,3.6748,3.6756,3.6784,3.679,3.68,3.682,3.6843,3.6856,3.6885,3.6902,3.6926,3.6912,3.6873,3.6985,3.6928,3.6984,3.6985,3.7009,3.7008,3.7177,3.7021,3.7021,3.702,3.702,0,3.6753,3.6808,3.6786,3.6821,3.6882,3.6858,3.6919,3.692,3.693,3.6967,3.6934,3.697,3.6948,3.6983,3.6972,3.7033,3.704,3.7039,3.7036,3.7042,3.7043,3.7054,3.7047,3.7025,3.7024,3.7023,3.7022,0,3.6881,3.6868,3.6929,3.6933,3.6935,3.6979,3.6983,3.7018,3.7012,3.7059,3.7069,3.7061,3.71,3.7088,3.713,3.7123,3.7201,3.7187,3.7196,3.7193,3.7249,3.7245,3.7432,3.7456,3.7284,3.7286,3.7287,0,3.6961,3.7001,3.701,3.7032,3.7039,3.7074,3.7094,3.7074,3.7096,3.7117,3.7149,3.7185,3.7213,3.7278,3.7277,3.731,3.7298,3.7361,3.7302,3.7309,3.73,3.7298,3.7303,3.7373,3.7375,3.7377,3.7378,0,3.7105,3.7097,3.7126,3.7154,3.7179,3.72,3.7218,3.7238,3.722,3.7247,3.7286,3.7308,3.7351,3.7388,3.7419,3.7426,3.74,3.7397,3.7411,3.7419,3.7422,3.7422,3.7229,3.7392,3.7391,3.739,3.7389,3.7388,3.7211,3.7246,3.7258,3.7293,3.7304,3.7323,3.7356,3.7355,3.7387,3.742,3.7406,3.7452,3.7468,3.7506,3.7517,3.7554,3.753,3.7551,3.7557,3.7562,3.757,3.7416,3.756,3.7559,3.7559,3.7558,3.7558,0,3.7354,3.736,3.7392,3.7419,3.7447,3.7419,3.7439,3.7464,3.7504,3.7521,3.7549,3.7595,3.7632,3.7634,3.7669,3.7698,3.7687,3.7708,3.7706,3.7709,3.7589,3.7573,3.7716,3.7716,3.7716,3.7716,3.7716,3.7716,3.7432,3.749,3.7484,3.7549,3.7555,3.7599,3.7613,3.7631,3.7644,3.7697,3.7727,3.7728,3.7739,3.7775,3.7808,3.7808,3.7823,3.7848,3.7844,3.7732,3.7717,3.7702,3.7687,3.7852,3.7852,3.7961,3.7962,3.7962]},{"header":{"parameterUnit":"m.s-1","parameterCategory":1,"la1":30.2991,"la2":30.254,"lo1":-89.0895,"lo2":-89.0444,"dy":0.0017,"dx":0.0017,"nx":28,"ny":28,"refTime":"2024-07-04T21:00:00:Z","depth":0,"parameterNumber":3,"parameterNumberName":"V-component_of_WINDS"},"data":[0,0,0,0,0,0,0,0,0,0,0,0,0,0,0,0,0,0,0,0,0,0,0,0,0,0,0,0,0,0,0,0,0,0,0,0,0,0,0,0,0,0,0,0,0,0,0,0,0,0,0,0,0,0,0,0,0,0,0.0587,0.0587,0,0.0559,0.0558,0.0558,0.0556,0.0556,0.0556,0.0557,0.0522,0.0521,0.0519,0,0,0,0,0,0,0,0,0,0,0,0,0,0.0637,0.0636,0.0587,0.0587,0.0587,0.0559,0.0558,0.0558,0.0555,0.0556,0.0556,0.0557,0.0522,0.0521,0.0519,0,0,0,0,0,0,0,0,0,0,0,0,0,0.0612,0.0635,0.0588,0.0582,0.0582,0.0559,0.0558,0.0558,0.0555,0.0556,0.0556,0.0557,0.0523,0.0521,0.0519,0.0498,0,0,0.0513,0.0513,0,0,0,0,0,0,0,0,0.0613,0.061,0.0583,0.0583,0.0582,0.0561,0.0563,0.0537,0.0555,0.0565,0.0557,0.0557,0.0534,0.0531,0.0525,0.0496,0.0495,0.0513,0.0512,0.0511,0.0511,0,0,0,0,0,0,0,0.0615,0.0611,0.0576,0.0583,0.0582,0.058,0.0577,0.0558,0.0547,0.0564,0.0564,0.0561,0.0534,0.0527,0.0524,0.0494,0.0513,0.0512,0.0511,0.051,0.0446,0.0445,0,0,0,0,0,0,0.0618,0.0613,0.0577,0.0575,0.0599,0.0579,0.0576,0.0567,0.0547,0.0545,0.0561,0.0561,0.0529,0.0526,0.0523,0.0496,0.0511,0.051,0.0509,0.0446,0.0446,0.0445,0,0,0,0,0,0,0.062,0.0615,0.0578,0.0594,0.0589,0.0577,0.0568,0.0566,0.0559,0.0545,0.0542,0.0555,0.053,0.0525,0.0504,0.0494,0.0509,0.0507,0.0447,0.0446,0.0445,0.0442,0,0,0,0,0,0,0.0621,0.0616,0.0608,0.0594,0.0588,0.0561,0.0568,0.0566,0.0557,0.0557,0.0539,0.0537,0.053,0.0507,0.0502,0.0492,0.0506,0.0448,0.0447,0.0446,0.0443,0.0441,0.044,0,0,0,0,0,0.0623,0.0608,0.0608,0.0604,0.0579,0.0561,0.0557,0.0551,0.0556,0.0548,0.0538,0.0537,0.0497,0.0505,0.05,0.0489,0.0448,0.0447,0.0446,0.0444,0.0441,0.044,0,0,0,0,0,0,0.0619,0.0606,0.0606,0.0586,0.0575,0.056,0.055,0.0549,0.0535,0.0536,0.0527,0.0523,0.0502,0.0494,0.0503,0.0467,0.0473,0.047,0.0473,0.0471,0.0469,0.0471,0.0504,0,0,0,0,0,0.0617,0.0605,0.0592,0.0576,0.0571,0.0561,0.0553,0.055,0.0537,0.0532,0.0521,0.0507,0.0491,0.0481,0.0465,0.0442,0.0437,0.0432,0.0431,0.0429,0.0426,0.0413,0.041,0.0441,0.0441,0.0441,0,0,0.061,0.0601,0.0594,0.0575,0.0566,0.0552,0.0557,0.0542,0.0531,0.0529,0.0508,0.05,0.0484,0.0462,0.0451,0.0454,0.0417,0.0428,0.0427,0.0425,0.0411,0.0408,0.0405,0.044,0.044,0.044,0,0,0.0591,0.0584,0.0569,0.056,0.0547,0.0541,0.0538,0.0524,0.0519,0.0499,0.0496,0.0483,0.0456,0.0444,0.0435,0.0413,0.041,0.0408,0.0398,0.0385,0.0383,0.038,0.0371,0.0368,0.0406,0.0406,0.0406,0,0.0584,0.0564,0.0561,0.0546,0.0537,0.0537,0.0521,0.0512,0.0494,0.0487,0.0491,0.0458,0.0447,0.0421,0.0416,0.0409,0.0403,0.0409,0.0384,0.0381,0.0379,0.037,0.0366,0.0406,0.0406,0.0406,0.0406,0,0.0556,0.0542,0.0531,0.0516,0.0506,0.0491,0.0484,0.0474,0.0472,0.0465,0.0444,0.0432,0.0414,0.0408,0.0405,0.0382,0.0383,0.0386,0.0391,0.0376,0.0367,0.0363,0.0405,0.0405,0.0405,0.0405,0,0,0.0531,0.0516,0.0511,0.0504,0.049,0.0479,0.0463,0.0447,0.0438,0.0426,0.0412,0.039,0.0392,0.0381,0.0377,0.0366,0.0347,0.0369,0.0368,0.0364,0.0319,0.0316,0.0313,0.0347,0.0346,0.0345,0.032,0,0.0509,0.0483,0.048,0.0456,0.0442,0.0442,0.0429,0.0418,0.0411,0.0398,0.039,0.0374,0.0379,0.0373,0.0361,0.0352,0.0338,0.0354,0.0331,0.033,0.0333,0.0308,0.0305,0.0282,0.0317,0.0316,0.0316,0,0.048,0.0468,0.0443,0.0431,0.0426,0.0413,0.0398,0.0387,0.0374,0.037,0.0359,0.0356,0.0339,0.0347,0.0321,0.0332,0.0323,0.0317,0.0316,0.0312,0.032,0.0301,0.0274,0.027,0.0311,0.0311,0.0311,0,0.0462,0.0441,0.0423,0.0417,0.0403,0.0395,0.0388,0.0376,0.0367,0.0354,0.0347,0.0332,0.0322,0.031,0.0302,0.0309,0.0277,0.0284,0.0271,0.0271,0.0262,0.0262,0.0231,0.026,0.026,0.026,0.026,0,0.0437,0.0421,0.0416,0.0404,0.0386,0.0383,0.0365,0.0358,0.0348,0.0334,0.0333,0.032,0.0312,0.0298,0.0292,0.0271,0.0267,0.0262,0.026,0.0261,0.0261,0.0253,0.0253,0.0259,0.0259,0.0259,0.0259,0,0.0414,0.041,0.039,0.0379,0.0376,0.0363,0.0353,0.0341,0.0336,0.0319,0.0314,0.0305,0.0288,0.028,0.0258,0.0254,0.023,0.023,0.0234,0.0233,0.022,0.022,0.018,0.0174,0.0208,0.0208,0.0208,0,0.0397,0.0385,0.0373,0.0365,0.0359,0.0345,0.0336,0.0333,0.0323,0.0308,0.0298,0.0281,0.0267,0.024,0.023,0.0213,0.0211,0.0199,0.0208,0.0209,0.0209,0.0209,0.0207,0.0196,0.0195,0.0195,0.0195,0,0.0366,0.0365,0.0353,0.034,0.033,0.0319,0.0309,0.0302,0.0296,0.0285,0.0269,0.0258,0.0237,0.0219,0.0202,0.0194,0.0192,0.0193,0.0188,0.0187,0.019,0.0186,0.0227,0.0193,0.0193,0.0193,0.0193,0.0193,0.0344,0.0333,0.0324,0.031,0.0303,0.0293,0.0282,0.0276,0.0262,0.0246,0.0244,0.0226,0.0213,0.0191,0.0182,0.0166,0.0169,0.0163,0.0161,0.0159,0.0157,0.0194,0.0163,0.0163,0.0163,0.0163,0.0163,0,0.0312,0.0306,0.0294,0.028,0.027,0.0273,0.0261,0.0251,0.0236,0.0225,0.0212,0.0193,0.0176,0.0166,0.0149,0.0138,0.0137,0.0134,0.0133,0.0131,0.0157,0.0161,0.0135,0.0135,0.0135,0.0135,0.0135,0.0135,0.0294,0.0275,0.0273,0.0251,0.0245,0.0228,0.0222,0.0212,0.0204,0.0183,0.017,0.0164,0.0153,0.0135,0.012,0.0117,0.011,0.0106,0.0103,0.0126,0.0129,0.0132,0.0136,0.0105,0.0105,0.0078,0.0078,0.0077]}]]